owner,sensor,date,latitude,longitude,vertical_datum,direction_of_sea_water_velocity,sea_water_speed,upward_sea_water_velocity,qcFlag 
TABS,ioos:station:wmo:42043:1,2009-10-01T00:00:00Z,28.9818,-94.9186,2.0,233.9898545,45.56713399,-99999.0,'11111222,11111222,99999999' 
TABS,ioos:station:wmo:42043:1,2009-10-01T00:30:00Z,28.9818,-94.9186,2.0,236.9170074,42.90569776,-99999.0,'11111222,11111222,99999999' 
TABS,ioos:station:wmo:42043:1,2009-10-01T01:00:00Z,28.9818,-94.9186,2.0,238.7359205,49.46258485,-99999.0,'11111222,11111222,99999999' 
TABS,ioos:station:wmo:42043:1,2009-10-01T01:30:00Z,28.9818,-94.9186,2.0,238.138941,49.95679934,-99999.0,'11111222,11111222,99999999' 
TABS,ioos:station:wmo:42043:1,2009-10-01T02:00:00Z,28.9818,-94.9186,2.0,237.6305906,47.76128662,-99999.0,'11111222,11111222,99999999' 
TABS,ioos:station:wmo:42043:1,2009-10-01T02:30:00Z,28.9818,-94.9186,2.0,239.8116767,51.80589638,-99999.0,'11111222,11111222,99999999' 
TABS,ioos:station:wmo:42043:1,2009-10-01T03:00:00Z,28.9818,-94.9186,2.0,242.521744,52.77342987,-99999.0,'11111222,11111222,99999999' 
TABS,ioos:station:wmo:42043:1,2009-10-01T03:30:00Z,28.9818,-94.9186,2.0,240.9568077,52.03275603,-99999.0,'11111222,11111222,99999999' 
TABS,ioos:station:wmo:42043:1,2009-10-01T04:00:00Z,28.9818,-94.9186,2.0,239.6791849,53.46290864,-99999.0,'11111222,11111222,99999999' 
TABS,ioos:station:wmo:42043:1,2009-10-01T04:30:00Z,28.9818,-94.9186,2.0,237.0412179,52.12942739,-99999.0,'11111222,11111222,99999999' 
TABS,ioos:station:wmo:42043:1,2009-10-01T05:00:00Z,28.9818,-94.9186,2.0,233.4986084,47.84499138,-99999.0,'11111222,11111222,99999999' 
TABS,ioos:station:wmo:42043:1,2009-10-01T05:30:00Z,28.9818,-94.9186,2.0,234.0824224,48.95876735,-99999.0,'11111222,11111222,99999999' 
TABS,ioos:station:wmo:42043:1,2009-10-01T06:00:00Z,28.9818,-94.9186,2.0,228.1799747,48.05119874,-99999.0,'11111222,11111222,99999999' 
TABS,ioos:station:wmo:42043:1,2009-10-01T06:30:00Z,28.9818,-94.9186,2.0,227.120148,47.77656539,-99999.0,'11111222,11111222,99999999' 
TABS,ioos:station:wmo:42043:1,2009-10-01T07:00:00Z,28.9818,-94.9186,2.0,226.2063127,36.60089207,-99999.0,'11111222,11111222,99999999' 
TABS,ioos:station:wmo:42043:1,2009-10-01T07:30:00Z,28.9818,-94.9186,2.0,239.5951893,27.58343162,-99999.0,'11111222,11111222,99999999' 
TABS,ioos:station:wmo:42043:1,2009-10-01T08:00:00Z,28.9818,-94.9186,2.0,224.3055704,35.60543919,-99999.0,'11111222,11111222,99999999' 
TABS,ioos:station:wmo:42043:1,2009-10-01T08:30:00Z,28.9818,-94.9186,2.0,221.3639481,34.45595014,-99999.0,'11111222,11111222,99999999' 
TABS,ioos:station:wmo:42043:1,2009-10-01T09:00:00Z,28.9818,-94.9186,2.0,238.1282771,38.97622865,-99999.0,'11111222,11111222,99999999' 
TABS,ioos:station:wmo:42043:1,2009-10-01T09:30:00Z,28.9818,-94.9186,2.0,232.0901269,37.80822397,-99999.0,'11111222,11111222,99999999' 
TABS,ioos:station:wmo:42043:1,2009-10-01T10:00:00Z,28.9818,-94.9186,2.0,228.2672433,35.60414161,-99999.0,'11111222,11111222,99999999' 
TABS,ioos:station:wmo:42043:1,2009-10-01T10:30:00Z,28.9818,-94.9186,2.0,227.8250269,36.58067386,-99999.0,'11111222,11111222,99999999' 
TABS,ioos:station:wmo:42043:1,2009-10-01T11:00:00Z,28.9818,-94.9186,2.0,226.7951362,41.07478545,-99999.0,'11111222,11111222,99999999' 
TABS,ioos:station:wmo:42043:1,2009-10-01T11:30:00Z,28.9818,-94.9186,2.0,233.126713,37.51400005,-99999.0,'11111222,11111222,99999999' 
TABS,ioos:station:wmo:42043:1,2009-10-01T12:00:00Z,28.9818,-94.9186,2.0,241.3157961,33.02246811,-99999.0,'11111222,11111222,99999999' 
TABS,ioos:station:wmo:42043:1,2009-10-01T12:30:00Z,28.9818,-94.9186,2.0,238.7941851,39.02656531,-99999.0,'11111222,11111222,99999999' 
TABS,ioos:station:wmo:42043:1,2009-10-01T13:00:00Z,28.9818,-94.9186,2.0,231.9466528,36.12970246,-99999.0,'11111222,11111222,99999999' 
TABS,ioos:station:wmo:42043:1,2009-10-01T13:30:00Z,28.9818,-94.9186,2.0,231.3347465,34.98916975,-99999.0,'11111222,11111222,99999999' 
TABS,ioos:station:wmo:42043:1,2009-10-01T14:00:00Z,28.9818,-94.9186,2.0,224.0308832,30.94741669,-99999.0,'11111222,11111222,99999999' 
TABS,ioos:station:wmo:42043:1,2009-10-01T14:30:00Z,28.9818,-94.9186,2.0,242.0574399,31.81949402,-99999.0,'11111222,11111222,99999999' 
TABS,ioos:station:wmo:42043:1,2009-10-01T15:00:00Z,28.9818,-94.9186,2.0,251.5228474,30.32308856,-99999.0,'11111222,11111222,99999999' 
TABS,ioos:station:wmo:42043:1,2009-10-01T15:30:00Z,28.9818,-94.9186,2.0,237.8039204,32.54423451,-99999.0,'11111222,11111222,99999999' 
TABS,ioos:station:wmo:42043:1,2009-10-01T16:00:00Z,28.9818,-94.9186,2.0,238.2243725,23.49080246,-99999.0,'11111222,11111222,99999999' 
TABS,ioos:station:wmo:42043:1,2009-10-01T16:30:00Z,28.9818,-94.9186,2.0,234.4982634,23.86680749,-99999.0,'11111222,11111222,99999999' 
TABS,ioos:station:wmo:42043:1,2009-10-01T17:00:00Z,28.9818,-94.9186,2.0,233.9153224,21.44401548,-99999.0,'11111222,11111222,99999999' 
TABS,ioos:station:wmo:42043:1,2009-10-01T17:30:00Z,28.9818,-94.9186,2.0,243.2009223,27.41442139,-99999.0,'11111222,11111222,99999999' 
TABS,ioos:station:wmo:42043:1,2009-10-01T18:00:00Z,28.9818,-94.9186,2.0,235.2744381,24.10288364,-99999.0,'11111222,11111222,99999999' 
TABS,ioos:station:wmo:42043:1,2009-10-01T18:30:00Z,28.9818,-94.9186,2.0,249.918613,23.99894164,-99999.0,'11111222,11111222,99999999' 
TABS,ioos:station:wmo:42043:1,2009-10-01T19:00:00Z,28.9818,-94.9186,2.0,246.8470054,22.91560604,-99999.0,'11111222,11111222,99999999' 
TABS,ioos:station:wmo:42043:1,2009-10-01T19:30:00Z,28.9818,-94.9186,2.0,239.2122359,25.63229994,-99999.0,'11111222,11111222,99999999' 
TABS,ioos:station:wmo:42043:1,2009-10-01T20:00:00Z,28.9818,-94.9186,2.0,237.9019952,24.35242288,-99999.0,'11111222,11111222,99999999' 
TABS,ioos:station:wmo:42043:1,2009-10-01T20:30:00Z,28.9818,-94.9186,2.0,241.4197807,23.91387882,-99999.0,'11111222,11111222,99999999' 
TABS,ioos:station:wmo:42043:1,2009-10-01T21:00:00Z,28.9818,-94.9186,2.0,240.5444103,26.25352738,-99999.0,'11111222,11111222,99999999' 
TABS,ioos:station:wmo:42043:1,2009-10-01T21:30:00Z,28.9818,-94.9186,2.0,247.1832681,28.93401631,-99999.0,'11111222,11111222,99999999' 
TABS,ioos:station:wmo:42043:1,2009-10-01T22:00:00Z,28.9818,-94.9186,2.0,254.3092252,31.17154151,-99999.0,'11111222,11111222,99999999' 
TABS,ioos:station:wmo:42043:1,2009-10-01T22:30:00Z,28.9818,-94.9186,2.0,246.6295065,32.01659101,-99999.0,'11111222,11111222,99999999' 
TABS,ioos:station:wmo:42043:1,2009-10-01T23:00:00Z,28.9818,-94.9186,2.0,246.4531823,32.44116521,-99999.0,'11111222,11111222,99999999' 
TABS,ioos:station:wmo:42043:1,2009-10-01T23:30:00Z,28.9818,-94.9186,2.0,252.4718368,25.96555411,-99999.0,'11111222,11111222,99999999' 
TABS,ioos:station:wmo:42043:1,2009-10-02T00:00:00Z,28.9818,-94.9186,2.0,248.0572375,26.41338486,-99999.0,'11111222,11111222,99999999' 
TABS,ioos:station:wmo:42043:1,2009-10-02T00:30:00Z,28.9818,-94.9186,2.0,241.2081739,27.2827363,-99999.0,'11111222,11111222,99999999' 
TABS,ioos:station:wmo:42043:1,2009-10-02T01:00:00Z,28.9818,-94.9186,2.0,247.5259646,25.32315936,-99999.0,'11111222,11111222,99999999' 
TABS,ioos:station:wmo:42043:1,2009-10-02T01:30:00Z,28.9818,-94.9186,2.0,247.6881165,28.15810008,-99999.0,'11111222,11111222,99999999' 
TABS,ioos:station:wmo:42043:1,2009-10-02T02:00:00Z,28.9818,-94.9186,2.0,249.6995772,26.71959019,-99999.0,'11111222,11111222,99999999' 
TABS,ioos:station:wmo:42043:1,2009-10-02T02:30:00Z,28.9818,-94.9186,2.0,255.6636228,22.25294812,-99999.0,'11111222,11111222,99999999' 
TABS,ioos:station:wmo:42043:1,2009-10-02T03:00:00Z,28.9818,-94.9186,2.0,258.1725495,21.07745952,-99999.0,'11111222,11111222,99999999' 
TABS,ioos:station:wmo:42043:1,2009-10-02T03:30:00Z,28.9818,-94.9186,2.0,245.9630969,21.99749304,-99999.0,'11111222,11111222,99999999' 
TABS,ioos:station:wmo:42043:1,2009-10-02T04:00:00Z,28.9818,-94.9186,2.0,249.5759191,20.77602946,-99999.0,'11111222,11111222,99999999' 
TABS,ioos:station:wmo:42043:1,2009-10-02T04:30:00Z,28.9818,-94.9186,2.0,249.9023995,19.73142924,-99999.0,'11111222,11111222,99999999' 
TABS,ioos:station:wmo:42043:1,2009-10-02T05:00:00Z,28.9818,-94.9186,2.0,249.5348393,19.1058211,-99999.0,'11111222,11111222,99999999' 
TABS,ioos:station:wmo:42043:1,2009-10-02T05:30:00Z,28.9818,-94.9186,2.0,236.5886787,19.35926652,-99999.0,'11111222,11111222,99999999' 
TABS,ioos:station:wmo:42043:1,2009-10-02T06:00:00Z,28.9818,-94.9186,2.0,237.5992976,17.99071149,-99999.0,'11111222,11111222,99999999' 
TABS,ioos:station:wmo:42043:1,2009-10-02T06:30:00Z,28.9818,-94.9186,2.0,232.0037083,20.35393082,-99999.0,'11111222,11111222,99999999' 
TABS,ioos:station:wmo:42043:1,2009-10-02T07:00:00Z,28.9818,-94.9186,2.0,218.573253,19.71071282,-99999.0,'11111222,11111222,99999999' 
TABS,ioos:station:wmo:42043:1,2009-10-02T07:30:00Z,28.9818,-94.9186,2.0,226.3968621,19.72,-99999.0,'11111222,11111222,99999999' 
TABS,ioos:station:wmo:42043:1,2009-10-02T08:00:00Z,28.9818,-94.9186,2.0,223.4439751,23.18043356,-99999.0,'11111222,11111222,99999999' 
TABS,ioos:station:wmo:42043:1,2009-10-02T08:30:00Z,28.9818,-94.9186,2.0,217.5824665,22.183717,-99999.0,'11111222,11111222,99999999' 
TABS,ioos:station:wmo:42043:1,2009-10-02T09:00:00Z,28.9818,-94.9186,2.0,217.9599961,25.32858662,-99999.0,'11111222,11111222,99999999' 
TABS,ioos:station:wmo:42043:1,2009-10-02T09:30:00Z,28.9818,-94.9186,2.0,210.078766,27.43446919,-99999.0,'11111222,11111222,99999999' 
TABS,ioos:station:wmo:42043:1,2009-10-02T10:00:00Z,28.9818,-94.9186,2.0,216.3649961,29.29513612,-99999.0,'11111222,11111222,99999999' 
TABS,ioos:station:wmo:42043:1,2009-10-02T10:30:00Z,28.9818,-94.9186,2.0,221.711928,31.44021787,-99999.0,'11111222,11111222,99999999' 
TABS,ioos:station:wmo:42043:1,2009-10-02T11:00:00Z,28.9818,-94.9186,2.0,207.1325121,43.32818021,-99999.0,'11111222,11111222,99999999' 
TABS,ioos:station:wmo:42043:1,2009-10-02T11:30:00Z,28.9818,-94.9186,2.0,210.0421404,50.87477273,-99999.0,'11111222,11111222,99999999' 
TABS,ioos:station:wmo:42043:1,2009-10-02T12:00:00Z,28.9818,-94.9186,2.0,206.8482905,49.70839969,-99999.0,'11111222,11111222,99999999' 
TABS,ioos:station:wmo:42043:1,2009-10-02T12:30:00Z,28.9818,-94.9186,2.0,213.5142945,43.46651125,-99999.0,'11111222,11111222,99999999' 
TABS,ioos:station:wmo:42043:1,2009-10-02T13:00:00Z,28.9818,-94.9186,2.0,213.8139739,49.90094688,-99999.0,'11111222,11111222,99999999' 
TABS,ioos:station:wmo:42043:1,2009-10-02T13:30:00Z,28.9818,-94.9186,2.0,221.4260817,46.3986433,-99999.0,'11111222,11111222,99999999' 
TABS,ioos:station:wmo:42043:1,2009-10-02T14:00:00Z,28.9818,-94.9186,2.0,223.1285786,50.02619414,-99999.0,'11111222,11111222,99999999' 
TABS,ioos:station:wmo:42043:1,2009-10-02T14:30:00Z,28.9818,-94.9186,2.0,224.7519878,52.34053305,-99999.0,'11111222,11111222,99999999' 
TABS,ioos:station:wmo:42043:1,2009-10-02T15:00:00Z,28.9818,-94.9186,2.0,229.4281662,47.98610841,-99999.0,'11111222,11111222,99999999' 
TABS,ioos:station:wmo:42043:1,2009-10-02T15:30:00Z,28.9818,-94.9186,2.0,234.6637059,51.17834015,-99999.0,'11111222,11111222,99999999' 
TABS,ioos:station:wmo:42043:1,2009-10-02T16:00:00Z,28.9818,-94.9186,2.0,235.3915983,47.43295479,-99999.0,'11111222,11111222,99999999' 
TABS,ioos:station:wmo:42043:1,2009-10-02T16:30:00Z,28.9818,-94.9186,2.0,244.715314,41.41785364,-99999.0,'11111222,11111222,99999999' 
TABS,ioos:station:wmo:42043:1,2009-10-02T17:00:00Z,28.9818,-94.9186,2.0,249.0610849,36.99284931,-99999.0,'11111222,11111222,99999999' 
TABS,ioos:station:wmo:42043:1,2009-10-02T17:30:00Z,28.9818,-94.9186,2.0,249.2162491,44.83764601,-99999.0,'11111222,11111222,99999999' 
TABS,ioos:station:wmo:42043:1,2009-10-02T18:00:00Z,28.9818,-94.9186,2.0,249.6527566,32.70034403,-99999.0,'11111222,11111222,99999999' 
TABS,ioos:station:wmo:42043:1,2009-10-02T18:30:00Z,28.9818,-94.9186,2.0,251.3694667,39.91133799,-99999.0,'11111222,11111222,99999999' 
TABS,ioos:station:wmo:42043:1,2009-10-02T19:00:00Z,28.9818,-94.9186,2.0,255.7632363,45.82738592,-99999.0,'11111222,11111222,99999999' 
TABS,ioos:station:wmo:42043:1,2009-10-02T19:30:00Z,28.9818,-94.9186,2.0,252.5072106,39.02462428,-99999.0,'11111222,11111222,99999999' 
TABS,ioos:station:wmo:42043:1,2009-10-02T20:00:00Z,28.9818,-94.9186,2.0,255.1512325,36.44706435,-99999.0,'11111222,11111222,99999999' 
TABS,ioos:station:wmo:42043:1,2009-10-02T20:30:00Z,28.9818,-94.9186,2.0,250.6360924,38.63545781,-99999.0,'11111222,11111222,99999999' 
TABS,ioos:station:wmo:42043:1,2009-10-02T21:00:00Z,28.9818,-94.9186,2.0,245.4045529,32.00363104,-99999.0,'11111222,11111222,99999999' 
TABS,ioos:station:wmo:42043:1,2009-10-02T21:30:00Z,28.9818,-94.9186,2.0,249.9578245,35.8616815,-99999.0,'11111222,11111222,99999999' 
TABS,ioos:station:wmo:42043:1,2009-10-02T22:00:00Z,28.9818,-94.9186,2.0,247.748514,34.54225383,-99999.0,'11111222,11111222,99999999' 
TABS,ioos:station:wmo:42043:1,2009-10-02T22:30:00Z,28.9818,-94.9186,2.0,252.0630386,40.71902749,-99999.0,'11111222,11111222,99999999' 
TABS,ioos:station:wmo:42043:1,2009-10-03T00:00:00Z,28.9818,-94.9186,2.0,229.4137965,32.24779837,-99999.0,'11111222,11111222,99999999' 
TABS,ioos:station:wmo:42043:1,2009-10-03T00:30:00Z,28.9818,-94.9186,2.0,228.9344572,38.84809519,-99999.0,'11111222,11111222,99999999' 
TABS,ioos:station:wmo:42043:1,2009-10-03T01:00:00Z,28.9818,-94.9186,2.0,235.9980865,36.73001634,-99999.0,'11111222,11111222,99999999' 
TABS,ioos:station:wmo:42043:1,2009-10-03T01:30:00Z,28.9818,-94.9186,2.0,238.555897,38.28154255,-99999.0,'11111222,11111222,99999999' 
TABS,ioos:station:wmo:42043:1,2009-10-03T02:00:00Z,28.9818,-94.9186,2.0,249.9814835,40.51791949,-99999.0,'11111222,11111222,99999999' 
TABS,ioos:station:wmo:42043:1,2009-10-03T02:30:00Z,28.9818,-94.9186,2.0,255.6217875,39.86871455,-99999.0,'11111222,11111222,99999999' 
TABS,ioos:station:wmo:42043:1,2009-10-03T03:00:00Z,28.9818,-94.9186,2.0,257.8811858,40.58439109,-99999.0,'11111222,11111222,99999999' 
TABS,ioos:station:wmo:42043:1,2009-10-03T03:30:00Z,28.9818,-94.9186,2.0,255.2690869,38.02995267,-99999.0,'11111222,11111222,99999999' 
TABS,ioos:station:wmo:42043:1,2009-10-03T04:00:00Z,28.9818,-94.9186,2.0,250.1640438,35.83615074,-99999.0,'11111222,11111222,99999999' 
TABS,ioos:station:wmo:42043:1,2009-10-03T04:30:00Z,28.9818,-94.9186,2.0,251.5227259,38.87388969,-99999.0,'11111222,11111222,99999999' 
TABS,ioos:station:wmo:42043:1,2009-10-03T05:00:00Z,28.9818,-94.9186,2.0,250.6317327,36.12432422,-99999.0,'11111222,11111222,99999999' 
TABS,ioos:station:wmo:42043:1,2009-10-03T05:30:00Z,28.9818,-94.9186,2.0,251.2864851,31.26264544,-99999.0,'11111222,11111222,99999999' 
TABS,ioos:station:wmo:42043:1,2009-10-03T06:00:00Z,28.9818,-94.9186,2.0,250.3394757,30.4660237,-99999.0,'11111222,11111222,99999999' 
TABS,ioos:station:wmo:42043:1,2009-10-03T06:30:00Z,28.9818,-94.9186,2.0,247.3662223,29.28538543,-99999.0,'11111222,11111222,99999999' 
TABS,ioos:station:wmo:42043:1,2009-10-03T07:00:00Z,28.9818,-94.9186,2.0,247.7157423,25.58043979,-99999.0,'11111222,11111222,99999999' 
TABS,ioos:station:wmo:42043:1,2009-10-03T07:30:00Z,28.9818,-94.9186,2.0,241.1966115,25.88210386,-99999.0,'11111222,11111222,99999999' 
TABS,ioos:station:wmo:42043:1,2009-10-03T08:00:00Z,28.9818,-94.9186,2.0,232.4588092,30.23007278,-99999.0,'11111222,11111222,99999999' 
TABS,ioos:station:wmo:42043:1,2009-10-03T08:30:00Z,28.9818,-94.9186,2.0,233.2860358,27.13210091,-99999.0,'11111222,11111222,99999999' 
TABS,ioos:station:wmo:42043:1,2009-10-03T09:00:00Z,28.9818,-94.9186,2.0,240.2805519,30.31781325,-99999.0,'11111222,11111222,99999999' 
TABS,ioos:station:wmo:42043:1,2009-10-03T09:30:00Z,28.9818,-94.9186,2.0,241.4567608,42.63143676,-99999.0,'11111222,11111222,99999999' 
TABS,ioos:station:wmo:42043:1,2009-10-03T10:00:00Z,28.9818,-94.9186,2.0,229.0738731,50.5586234,-99999.0,'11111222,11111222,99999999' 
TABS,ioos:station:wmo:42043:1,2009-10-03T10:30:00Z,28.9818,-94.9186,2.0,228.6220594,45.5509001,-99999.0,'11111222,11111222,99999999' 
TABS,ioos:station:wmo:42043:1,2009-10-03T11:00:00Z,28.9818,-94.9186,2.0,236.4801008,40.07449313,-99999.0,'11111222,11111222,99999999' 
TABS,ioos:station:wmo:42043:1,2009-10-03T11:30:00Z,28.9818,-94.9186,2.0,233.1467584,40.46600178,-99999.0,'11111222,11111222,99999999' 
TABS,ioos:station:wmo:42043:1,2009-10-03T12:00:00Z,28.9818,-94.9186,2.0,237.3779072,38.52785226,-99999.0,'11111222,11111222,99999999' 
TABS,ioos:station:wmo:42043:1,2009-10-03T12:30:00Z,28.9818,-94.9186,2.0,236.9434142,36.35450178,-99999.0,'11111222,11111222,99999999' 
TABS,ioos:station:wmo:42043:1,2009-10-03T13:00:00Z,28.9818,-94.9186,2.0,237.1515575,42.08964837,-99999.0,'11111222,11111222,99999999' 
TABS,ioos:station:wmo:42043:1,2009-10-03T13:30:00Z,28.9818,-94.9186,2.0,237.5922521,51.66662849,-99999.0,'11111222,11111222,99999999' 
TABS,ioos:station:wmo:42043:1,2009-10-03T14:00:00Z,28.9818,-94.9186,2.0,239.7382992,41.9688575,-99999.0,'11111222,11111222,99999999' 
TABS,ioos:station:wmo:42043:1,2009-10-03T14:30:00Z,28.9818,-94.9186,2.0,245.079717,53.898038,-99999.0,'11111222,11111222,99999999' 
TABS,ioos:station:wmo:42043:1,2009-10-03T15:00:00Z,28.9818,-94.9186,2.0,235.7746705,46.93800273,-99999.0,'11111222,11111222,99999999' 
TABS,ioos:station:wmo:42043:1,2009-10-03T15:30:00Z,28.9818,-94.9186,2.0,233.9694408,44.35476299,-99999.0,'11111222,11111222,99999999' 
TABS,ioos:station:wmo:42043:1,2009-10-03T16:00:00Z,28.9818,-94.9186,2.0,234.6695394,39.15013665,-99999.0,'11111222,11111222,99999999' 
TABS,ioos:station:wmo:42043:1,2009-10-03T16:30:00Z,28.9818,-94.9186,2.0,235.7462219,41.18293336,-99999.0,'11111222,11111222,99999999' 
TABS,ioos:station:wmo:42043:1,2009-10-03T17:00:00Z,28.9818,-94.9186,2.0,241.5321894,29.09833844,-99999.0,'11111222,11111222,99999999' 
TABS,ioos:station:wmo:42043:1,2009-10-03T17:30:00Z,28.9818,-94.9186,2.0,232.8769678,31.73030885,-99999.0,'11111222,11111222,99999999' 
TABS,ioos:station:wmo:42043:1,2009-10-03T18:00:00Z,28.9818,-94.9186,2.0,232.1392701,31.00663316,-99999.0,'11111222,11111222,99999999' 
TABS,ioos:station:wmo:42043:1,2009-10-03T18:30:00Z,28.9818,-94.9186,2.0,236.1827405,31.31844983,-99999.0,'11111222,11111222,99999999' 
TABS,ioos:station:wmo:42043:1,2009-10-03T19:00:00Z,28.9818,-94.9186,2.0,234.6766743,29.78285413,-99999.0,'11111222,11111222,99999999' 
TABS,ioos:station:wmo:42043:1,2009-10-03T19:30:00Z,28.9818,-94.9186,2.0,239.1801202,36.1091415,-99999.0,'11111222,11111222,99999999' 
TABS,ioos:station:wmo:42043:1,2009-10-03T20:00:00Z,28.9818,-94.9186,2.0,234.0968,44.3203125,-99999.0,'11111222,11111222,99999999' 
TABS,ioos:station:wmo:42043:1,2009-10-03T20:30:00Z,28.9818,-94.9186,2.0,237.3524999,44.95202999,-99999.0,'11111222,11111222,99999999' 
TABS,ioos:station:wmo:42043:1,2009-10-03T21:00:00Z,28.9818,-94.9186,2.0,237.0636436,40.46333649,-99999.0,'11111222,11111222,99999999' 
TABS,ioos:station:wmo:42043:1,2009-10-03T21:30:00Z,28.9818,-94.9186,2.0,237.1980875,42.03191407,-99999.0,'11111222,11111222,99999999' 
TABS,ioos:station:wmo:42043:1,2009-10-03T22:00:00Z,28.9818,-94.9186,2.0,232.9877462,45.18413881,-99999.0,'11111222,11111222,99999999' 
TABS,ioos:station:wmo:42043:1,2009-10-03T22:30:00Z,28.9818,-94.9186,2.0,227.3358001,34.86813015,-99999.0,'11111222,11111222,99999999' 
TABS,ioos:station:wmo:42043:1,2009-10-03T23:00:00Z,28.9818,-94.9186,2.0,230.2494957,29.13480565,-99999.0,'11111222,11111222,99999999' 
TABS,ioos:station:wmo:42043:1,2009-10-03T23:30:00Z,28.9818,-94.9186,2.0,234.126926,36.77556934,-99999.0,'11111222,11111222,99999999' 
TABS,ioos:station:wmo:42043:1,2009-10-04T00:00:00Z,28.9818,-94.9186,2.0,239.7906391,46.08909849,-99999.0,'11111222,11111222,99999999' 
TABS,ioos:station:wmo:42043:1,2009-10-04T00:30:00Z,28.9818,-94.9186,2.0,226.0516803,45.44634199,-99999.0,'11111222,11111222,99999999' 
TABS,ioos:station:wmo:42043:1,2009-10-04T01:00:00Z,28.9818,-94.9186,2.0,228.9587144,51.30990255,-99999.0,'11111222,11111222,99999999' 
TABS,ioos:station:wmo:42043:1,2009-10-04T01:30:00Z,28.9818,-94.9186,2.0,218.5701426,42.05452175,-99999.0,'11111222,11111222,99999999' 
TABS,ioos:station:wmo:42043:1,2009-10-04T02:00:00Z,28.9818,-94.9186,2.0,230.2460611,49.41457376,-99999.0,'11111222,11111222,99999999' 
TABS,ioos:station:wmo:42043:1,2009-10-04T02:30:00Z,28.9818,-94.9186,2.0,210.1199093,42.98391909,-99999.0,'11111222,11111222,99999999' 
TABS,ioos:station:wmo:42043:1,2009-10-04T03:00:00Z,28.9818,-94.9186,2.0,230.9757269,40.54665091,-99999.0,'11111222,11111222,99999999' 
TABS,ioos:station:wmo:42043:1,2009-10-04T03:30:00Z,28.9818,-94.9186,2.0,254.1425941,32.05999376,-99999.0,'11111222,11111222,99999999' 
TABS,ioos:station:wmo:42043:1,2009-10-04T04:00:00Z,28.9818,-94.9186,2.0,258.3405989,31.22422937,-99999.0,'11111222,11111222,99999999' 
TABS,ioos:station:wmo:42043:1,2009-10-04T04:30:00Z,28.9818,-94.9186,2.0,249.4784845,32.66267901,-99999.0,'11111222,11111222,99999999' 
TABS,ioos:station:wmo:42043:1,2009-10-04T05:00:00Z,28.9818,-94.9186,2.0,248.1512432,31.70748965,-99999.0,'11111222,11111222,99999999' 
TABS,ioos:station:wmo:42043:1,2009-10-04T05:30:00Z,28.9818,-94.9186,2.0,252.3494961,33.01411365,-99999.0,'11111222,11111222,99999999' 
TABS,ioos:station:wmo:42043:1,2009-10-04T06:00:00Z,28.9818,-94.9186,2.0,259.5441524,27.2219856,-99999.0,'11111222,11111222,99999999' 
TABS,ioos:station:wmo:42043:1,2009-10-04T06:30:00Z,28.9818,-94.9186,2.0,254.32972,27.13864035,-99999.0,'11111222,11111222,99999999' 
TABS,ioos:station:wmo:42043:1,2009-10-04T07:00:00Z,28.9818,-94.9186,2.0,262.8745794,27.73416665,-99999.0,'11111222,11111222,99999999' 
TABS,ioos:station:wmo:42043:1,2009-10-04T07:30:00Z,28.9818,-94.9186,2.0,256.8470822,23.11639462,-99999.0,'11111222,11111222,99999999' 
TABS,ioos:station:wmo:42043:1,2009-10-04T08:00:00Z,28.9818,-94.9186,2.0,245.4339935,48.70885443,-99999.0,'11111222,11111222,99999999' 
TABS,ioos:station:wmo:42043:1,2009-10-04T08:30:00Z,28.9818,-94.9186,2.0,243.3575995,69.8906038,-99999.0,'11111222,11111222,99999999' 
TABS,ioos:station:wmo:42043:1,2009-10-04T09:00:00Z,28.9818,-94.9186,2.0,236.8447032,68.89676916,-99999.0,'11111222,11111222,99999999' 
TABS,ioos:station:wmo:42043:1,2009-10-04T09:30:00Z,28.9818,-94.9186,2.0,237.7207411,62.39218621,-99999.0,'11111222,11111222,99999999' 
TABS,ioos:station:wmo:42043:1,2009-10-04T10:00:00Z,28.9818,-94.9186,2.0,235.9314068,65.55035011,-99999.0,'11111222,11111222,99999999' 
TABS,ioos:station:wmo:42043:1,2009-10-04T10:30:00Z,28.9818,-94.9186,2.0,232.1142056,57.54903996,-99999.0,'11111222,11111222,99999999' 
TABS,ioos:station:wmo:42043:1,2009-10-04T11:00:00Z,28.9818,-94.9186,2.0,234.2735238,58.31361848,-99999.0,'11111222,11111222,99999999' 
TABS,ioos:station:wmo:42043:1,2009-10-04T11:30:00Z,28.9818,-94.9186,2.0,235.8967021,55.80706228,-99999.0,'11111222,11111222,99999999' 
TABS,ioos:station:wmo:42043:1,2009-10-04T12:00:00Z,28.9818,-94.9186,2.0,235.2134095,48.13182419,-99999.0,'11111222,11111222,99999999' 
TABS,ioos:station:wmo:42043:1,2009-10-04T12:30:00Z,28.9818,-94.9186,2.0,227.8793658,47.99537582,-99999.0,'11111222,11111222,99999999' 
TABS,ioos:station:wmo:42043:1,2009-10-04T13:00:00Z,28.9818,-94.9186,2.0,228.5214038,45.3546249,-99999.0,'11111222,11111222,99999999' 
TABS,ioos:station:wmo:42043:1,2009-10-04T13:30:00Z,28.9818,-94.9186,2.0,230.5364251,48.00316344,-99999.0,'11111222,11111222,99999999' 
TABS,ioos:station:wmo:42043:1,2009-10-04T14:00:00Z,28.9818,-94.9186,2.0,231.5524465,36.61987575,-99999.0,'11111222,11111222,99999999' 
TABS,ioos:station:wmo:42043:1,2009-10-04T14:30:00Z,28.9818,-94.9186,2.0,236.0216049,34.21156676,-99999.0,'11111222,11111222,99999999' 
TABS,ioos:station:wmo:42043:1,2009-10-04T15:00:00Z,28.9818,-94.9186,2.0,229.6426263,32.05935901,-99999.0,'11111222,11111222,99999999' 
TABS,ioos:station:wmo:42043:1,2009-10-04T15:30:00Z,28.9818,-94.9186,2.0,226.9475595,26.83606715,-99999.0,'11111222,11111222,99999999' 
TABS,ioos:station:wmo:42043:1,2009-10-04T16:00:00Z,28.9818,-94.9186,2.0,228.2665626,22.45885349,-99999.0,'11111222,11111222,99999999' 
TABS,ioos:station:wmo:42043:1,2009-10-04T16:30:00Z,28.9818,-94.9186,2.0,234.0075829,33.4199222,-99999.0,'11111222,11111222,99999999' 
TABS,ioos:station:wmo:42043:1,2009-10-04T17:00:00Z,28.9818,-94.9186,2.0,228.2647942,25.82303235,-99999.0,'11111222,11111222,99999999' 